Location: El Mouella
(16.4949°N, 9.1594°W)
Time: 02:21:14
(UTC+00:00)

H-2A R/B - Pass Details

Date: 01 October 2020
Orbit: 734 x 836 km, 98.2° (Epoch: 20 October)

Event Time Altitude Azimuth Distance (km) Brightness Sun altitude
Exits shadow 20:45:54 25° 231° (SW) 1,485 3.8 -34.5°
Maximum altitude 20:47:21 29° 261° (W) 1,356 3.7 -34.8°
Drops below altitude 10° 20:51:43 10° 320° (NW) 2,301 4.9 -35.9°
Sets 20:54:20 0° 332° (NNW) 3,246 5.7 -36.5°
